Year,Month,Day,Hour,Minute,Value (Times are PST for temperature in C)
2021,06,27,00,00,20.60
2021,06,27,00,01,20.60
2021,06,27,00,02,20.50
2021,06,27,00,03,20.50
2021,06,27,00,04,20.50
2021,06,27,00,05,20.50
2021,06,27,00,06,20.50
2021,06,27,00,07,20.50
2021,06,27,00,08,20.40
2021,06,27,00,09,20.40
2021,06,27,00,10,20.40
2021,06,27,00,11,20.40
2021,06,27,00,12,20.40
2021,06,27,00,13,20.40
2021,06,27,00,14,20.40
2021,06,27,00,15,20.40
2021,06,27,00,16,20.30
2021,06,27,00,17,20.30
2021,06,27,00,18,20.30
2021,06,27,00,19,20.30
2021,06,27,00,20,20.30
2021,06,27,00,21,20.30
2021,06,27,00,22,20.30
2021,06,27,00,23,20.30
2021,06,27,00,24,20.30
2021,06,27,00,25,20.30
2021,06,27,00,26,20.20
2021,06,27,00,27,20.20
2021,06,27,00,28,20.20
2021,06,27,00,29,20.20
2021,06,27,00,30,20.20
2021,06,27,00,31,20.20
2021,06,27,00,32,20.20
2021,06,27,00,33,20.20
2021,06,27,00,34,20.10
2021,06,27,00,35,20.10
2021,06,27,00,36,20.10
2021,06,27,00,37,20.10
2021,06,27,00,38,20.10
2021,06,27,00,39,20.10
2021,06,27,00,40,20.10
2021,06,27,00,41,20.10
2021,06,27,00,42,20.10
2021,06,27,00,43,20.10
2021,06,27,00,44,20.10
2021,06,27,00,45,20.10
2021,06,27,00,46,20.10
2021,06,27,00,47,20.10
2021,06,27,00,48,20.10
2021,06,27,00,49,20.10
2021,06,27,00,50,20.10
2021,06,27,00,51,20.10
2021,06,27,00,52,20.10
2021,06,27,00,53,20.10
2021,06,27,00,54,20.10
2021,06,27,00,55,20.10
2021,06,27,00,56,20.10
2021,06,27,00,57,20.10
2021,06,27,00,58,20.00
2021,06,27,00,59,20.00
2021,06,27,01,00,20.00
2021,06,27,01,01,20.00
2021,06,27,01,02,20.00
2021,06,27,01,03,19.90
2021,06,27,01,04,19.90
2021,06,27,01,05,19.90
2021,06,27,01,06,19.90
2021,06,27,01,07,19.90
2021,06,27,01,08,19.90
2021,06,27,01,09,19.90
2021,06,27,01,10,19.90
2021,06,27,01,11,19.90
2021,06,27,01,12,19.80
2021,06,27,01,13,19.80
2021,06,27,01,14,19.80
2021,06,27,01,15,19.80
2021,06,27,01,16,19.80
2021,06,27,01,17,19.80
2021,06,27,01,18,19.80
2021,06,27,01,19,19.80
2021,06,27,01,20,19.80
2021,06,27,01,21,19.80
2021,06,27,01,22,19.80
2021,06,27,01,23,19.80
2021,06,27,01,24,19.80
2021,06,27,01,25,19.80
2021,06,27,01,26,19.80
2021,06,27,01,27,19.80
2021,06,27,01,28,19.80
2021,06,27,01,29,19.80
2021,06,27,01,30,19.80
2021,06,27,01,31,19.80
2021,06,27,01,32,19.80
2021,06,27,01,33,19.80
2021,06,27,01,34,19.80
2021,06,27,01,35,19.80
2021,06,27,01,36,19.80
2021,06,27,01,37,19.80
2021,06,27,01,38,19.80
2021,06,27,01,39,19.80
2021,06,27,01,40,19.80
2021,06,27,01,41,19.80
2021,06,27,01,42,19.80
2021,06,27,01,43,19.80
2021,06,27,01,44,19.70
2021,06,27,01,45,19.70
2021,06,27,01,46,19.70
2021,06,27,01,47,19.70
2021,06,27,01,48,19.70
2021,06,27,01,49,19.80
2021,06,27,01,50,19.80
2021,06,27,01,51,19.70
2021,06,27,01,52,19.70
2021,06,27,01,53,19.70
2021,06,27,01,54,19.70
2021,06,27,01,55,19.70
2021,06,27,01,56,19.70
2021,06,27,01,57,19.70
2021,06,27,01,58,19.70
2021,06,27,01,59,19.70
2021,06,27,02,00,19.70
2021,06,27,02,01,19.70
2021,06,27,02,02,19.70
2021,06,27,02,03,19.70
2021,06,27,02,04,19.70
2021,06,27,02,05,19.70
2021,06,27,02,06,19.70
2021,06,27,02,07,19.70
2021,06,27,02,08,19.70
2021,06,27,02,09,19.70
2021,06,27,02,10,19.70
2021,06,27,02,11,19.70
2021,06,27,02,12,19.70
2021,06,27,02,13,19.70
2021,06,27,02,14,19.70
2021,06,27,02,15,19.70
2021,06,27,02,16,19.70
2021,06,27,02,17,19.70
2021,06,27,02,18,19.70
2021,06,27,02,19,19.70
2021,06,27,02,20,19.70
2021,06,27,02,21,19.70
2021,06,27,02,22,19.70
2021,06,27,02,23,19.70
2021,06,27,02,24,19.70
2021,06,27,02,25,19.70
2021,06,27,02,26,19.70
2021,06,27,02,27,19.70
2021,06,27,02,28,19.70
2021,06,27,02,29,19.70
2021,06,27,02,30,19.70
2021,06,27,02,31,19.70
2021,06,27,02,32,19.70
2021,06,27,02,33,19.70
2021,06,27,02,34,19.70
2021,06,27,02,35,19.70
2021,06,27,02,36,19.70
2021,06,27,02,37,19.70
2021,06,27,02,38,19.70
2021,06,27,02,39,19.70
2021,06,27,02,40,19.70
2021,06,27,02,41,19.70
2021,06,27,02,42,19.70
2021,06,27,02,43,19.70
2021,06,27,02,44,19.70
2021,06,27,02,45,19.70
2021,06,27,02,46,19.70
2021,06,27,02,47,19.70
2021,06,27,02,48,19.70
2021,06,27,02,49,19.70
2021,06,27,02,50,19.70
2021,06,27,02,51,19.70
2021,06,27,02,52,19.70
2021,06,27,02,53,19.80
2021,06,27,02,54,19.80
2021,06,27,02,55,19.80
2021,06,27,02,56,19.80
2021,06,27,02,57,19.80
2021,06,27,02,58,19.90
2021,06,27,02,59,19.90
2021,06,27,03,00,19.90
2021,06,27,03,01,19.90
2021,06,27,03,02,19.90
2021,06,27,03,03,19.90
2021,06,27,03,04,19.90
2021,06,27,03,05,19.90
2021,06,27,03,06,19.90
2021,06,27,03,07,19.90
2021,06,27,03,08,19.90
2021,06,27,03,09,19.90
2021,06,27,03,10,19.90
2021,06,27,03,11,19.90
2021,06,27,03,12,19.80
2021,06,27,03,13,19.80
2021,06,27,03,14,19.80
2021,06,27,03,15,19.80
2021,06,27,03,16,19.80
2021,06,27,03,17,19.80
2021,06,27,03,18,19.80
2021,06,27,03,19,19.80
2021,06,27,03,20,19.80
2021,06,27,03,21,19.80
2021,06,27,03,22,19.80
2021,06,27,03,23,19.80
2021,06,27,03,24,19.80
2021,06,27,03,25,19.90
2021,06,27,03,26,19.90
2021,06,27,03,27,19.90
2021,06,27,03,28,19.90
2021,06,27,03,29,19.90
2021,06,27,03,30,19.90
2021,06,27,03,31,19.90
2021,06,27,03,32,19.90
2021,06,27,03,33,19.90
2021,06,27,03,34,19.90
2021,06,27,03,35,19.90
2021,06,27,03,36,19.90
2021,06,27,03,37,19.90
2021,06,27,03,38,19.90
2021,06,27,03,39,19.90
2021,06,27,03,40,19.90
2021,06,27,03,41,19.90
2021,06,27,03,42,19.90
2021,06,27,03,43,19.90
2021,06,27,03,44,19.90
2021,06,27,03,45,19.80
2021,06,27,03,46,19.80
2021,06,27,03,47,19.80
2021,06,27,03,48,19.80
2021,06,27,03,49,19.80
2021,06,27,03,50,19.80
2021,06,27,03,51,19.80
2021,06,27,03,52,19.80
2021,06,27,03,53,19.80
2021,06,27,03,54,19.80
2021,06,27,03,55,19.80
2021,06,27,03,56,19.80
2021,06,27,03,57,19.80
2021,06,27,03,58,19.80
2021,06,27,03,59,19.80
2021,06,27,04,00,19.80
2021,06,27,04,01,19.80
2021,06,27,04,02,19.80
2021,06,27,04,03,19.80
2021,06,27,04,04,19.80
2021,06,27,04,05,19.80
2021,06,27,04,06,19.80
2021,06,27,04,07,19.80
2021,06,27,04,08,19.80
2021,06,27,04,09,19.80
2021,06,27,04,10,19.80
2021,06,27,04,11,19.80
2021,06,27,04,12,19.80
2021,06,27,04,13,19.80
2021,06,27,04,14,19.80
2021,06,27,04,15,19.80
2021,06,27,04,16,19.80
2021,06,27,04,17,19.70
2021,06,27,04,18,19.70
2021,06,27,04,19,19.70
2021,06,27,04,20,19.70
2021,06,27,04,21,19.70
2021,06,27,04,22,19.70
2021,06,27,04,23,19.70
2021,06,27,04,24,19.70
2021,06,27,04,25,19.70
2021,06,27,04,26,19.70
2021,06,27,04,27,19.70
2021,06,27,04,28,19.70
2021,06,27,04,29,19.70
2021,06,27,04,30,19.70
2021,06,27,04,31,19.70
2021,06,27,04,32,19.70
2021,06,27,04,33,19.70
2021,06,27,04,34,19.70
2021,06,27,04,35,19.70
2021,06,27,04,36,19.70
2021,06,27,04,37,19.70
2021,06,27,04,38,19.70
2021,06,27,04,39,19.70
2021,06,27,04,40,19.60
2021,06,27,04,41,19.60
2021,06,27,04,42,19.60
2021,06,27,04,43,19.60
2021,06,27,04,44,19.60
2021,06,27,04,45,19.50
2021,06,27,04,46,19.50
2021,06,27,04,47,19.50
2021,06,27,04,48,19.50
2021,06,27,04,49,19.50
2021,06,27,04,50,19.50
2021,06,27,04,51,19.50
2021,06,27,04,52,19.50
2021,06,27,04,53,19.50
2021,06,27,04,54,19.50
2021,06,27,04,55,19.50
2021,06,27,04,56,19.50
2021,06,27,04,57,19.50
2021,06,27,04,58,19.50
2021,06,27,04,59,19.50
2021,06,27,05,00,19.50
2021,06,27,05,01,19.50
2021,06,27,05,02,19.50
2021,06,27,05,03,19.50
2021,06,27,05,04,19.50
2021,06,27,05,05,19.50
2021,06,27,05,06,19.50
2021,06,27,05,07,19.50
2021,06,27,05,08,19.50
2021,06,27,05,09,19.50
2021,06,27,05,10,19.50
2021,06,27,05,11,19.50
2021,06,27,05,12,19.40
2021,06,27,05,13,19.40
2021,06,27,05,14,19.40
2021,06,27,05,15,19.40
2021,06,27,05,16,19.40
2021,06,27,05,17,19.40
2021,06,27,05,18,19.40
2021,06,27,05,19,19.40
2021,06,27,05,20,19.40
2021,06,27,05,21,19.50
2021,06,27,05,22,19.50
2021,06,27,05,23,19.50
2021,06,27,05,24,19.50
2021,06,27,05,25,19.50
2021,06,27,05,26,19.50
2021,06,27,05,27,19.50
2021,06,27,05,28,19.50
2021,06,27,05,29,19.50
2021,06,27,05,30,19.50
2021,06,27,05,31,19.50
2021,06,27,05,32,19.50
2021,06,27,05,33,19.60
2021,06,27,05,34,19.60
2021,06,27,05,35,19.60
2021,06,27,05,36,19.60
2021,06,27,05,37,19.60
2021,06,27,05,38,19.60
2021,06,27,05,39,19.60
2021,06,27,05,40,19.60
2021,06,27,05,41,19.60
2021,06,27,05,42,19.60
2021,06,27,05,43,19.60
2021,06,27,05,44,19.70
2021,06,27,05,45,19.70
2021,06,27,05,46,19.70
2021,06,27,05,47,19.70
2021,06,27,05,48,19.70
2021,06,27,05,49,19.70
2021,06,27,05,50,19.70
2021,06,27,05,51,19.70
2021,06,27,05,52,19.70
2021,06,27,05,53,19.70
2021,06,27,05,54,19.70
2021,06,27,05,55,19.70
2021,06,27,05,56,19.70
2021,06,27,05,57,19.80
2021,06,27,05,58,19.80
2021,06,27,05,59,19.80
2021,06,27,06,00,19.80
2021,06,27,06,01,19.80
2021,06,27,06,02,19.90
2021,06,27,06,03,19.90
2021,06,27,06,04,19.90
2021,06,27,06,05,19.90
2021,06,27,06,06,19.90
2021,06,27,06,07,19.90
2021,06,27,06,08,19.90
2021,06,27,06,09,20.00
2021,06,27,06,10,20.00
2021,06,27,06,11,20.00
2021,06,27,06,12,20.00
2021,06,27,06,13,20.10
2021,06,27,06,14,20.10
2021,06,27,06,15,20.10
2021,06,27,06,16,20.10
2021,06,27,06,17,20.20
2021,06,27,06,18,20.20
2021,06,27,06,19,20.20
2021,06,27,06,20,20.20
2021,06,27,06,21,20.20
2021,06,27,06,22,20.20
2021,06,27,06,23,20.30
2021,06,27,06,24,20.30
2021,06,27,06,25,20.30
2021,06,27,06,26,20.30
2021,06,27,06,27,20.40
2021,06,27,06,28,20.50
2021,06,27,06,29,20.50
2021,06,27,06,30,20.60
2021,06,27,06,31,20.70
2021,06,27,06,32,20.80
2021,06,27,06,33,20.80
2021,06,27,06,34,20.90
2021,06,27,06,35,21.00
2021,06,27,06,36,21.10
2021,06,27,06,37,21.20
2021,06,27,06,38,21.30
2021,06,27,06,39,21.40
2021,06,27,06,40,21.50
2021,06,27,06,41,21.60
2021,06,27,06,42,21.70
2021,06,27,06,43,21.80
2021,06,27,06,44,21.90
2021,06,27,06,45,22.00
2021,06,27,06,46,22.10
2021,06,27,06,47,22.20
2021,06,27,06,48,22.30
2021,06,27,06,49,22.40
2021,06,27,06,50,22.50
2021,06,27,06,51,22.60
2021,06,27,06,52,22.80
2021,06,27,06,53,22.90
2021,06,27,06,54,23.00
2021,06,27,06,55,23.10
2021,06,27,06,56,23.20
2021,06,27,06,57,23.40
2021,06,27,06,58,23.50
2021,06,27,06,59,23.50
2021,06,27,07,00,23.60
2021,06,27,07,01,23.80
2021,06,27,07,02,23.90
2021,06,27,07,03,24.00
2021,06,27,07,04,24.10
2021,06,27,07,05,24.30
2021,06,27,07,06,24.30
2021,06,27,07,07,24.40
2021,06,27,07,08,24.60
2021,06,27,07,09,24.70
2021,06,27,07,10,24.80
2021,06,27,07,11,24.90
2021,06,27,07,12,25.00
2021,06,27,07,13,25.10
2021,06,27,07,14,25.20
2021,06,27,07,15,25.30
2021,06,27,07,16,25.40
2021,06,27,07,17,25.50
2021,06,27,07,18,25.60
2021,06,27,07,19,25.80
2021,06,27,07,20,25.80
2021,06,27,07,21,26.00
2021,06,27,07,22,26.10
2021,06,27,07,23,26.20
2021,06,27,07,24,26.30
2021,06,27,07,25,26.40
2021,06,27,07,26,26.60
2021,06,27,07,27,26.70
2021,06,27,07,28,26.80
2021,06,27,07,29,26.90
2021,06,27,07,30,27.00
2021,06,27,07,31,27.10
2021,06,27,07,32,27.20
2021,06,27,07,33,27.30
2021,06,27,07,34,27.40
2021,06,27,07,35,27.40
2021,06,27,07,36,27.50
2021,06,27,07,37,27.60
2021,06,27,07,38,27.70
2021,06,27,07,39,27.80
2021,06,27,07,40,27.80
2021,06,27,07,41,27.90
2021,06,27,07,42,28.00
2021,06,27,07,43,28.10
2021,06,27,07,44,28.20
2021,06,27,07,45,28.10
2021,06,27,07,46,28.20
2021,06,27,07,47,28.30
2021,06,27,07,48,28.40
2021,06,27,07,49,28.50
2021,06,27,07,50,28.50
2021,06,27,07,51,28.50
2021,06,27,07,52,28.60
2021,06,27,07,53,28.60
2021,06,27,07,54,28.60
2021,06,27,07,55,28.60
2021,06,27,07,56,28.60
2021,06,27,07,57,28.60
2021,06,27,07,58,28.60
2021,06,27,07,59,28.60
2021,06,27,08,00,28.60
2021,06,27,08,01,28.60
2021,06,27,08,02,28.60
2021,06,27,08,03,28.70
2021,06,27,08,04,28.70
2021,06,27,08,05,28.60
2021,06,27,08,06,28.70
2021,06,27,08,07,28.70
2021,06,27,08,08,28.70
2021,06,27,08,09,28.70
2021,06,27,08,10,28.80
2021,06,27,08,11,28.80
2021,06,27,08,12,28.80
2021,06,27,08,13,28.80
2021,06,27,08,14,28.80
2021,06,27,08,15,28.80
2021,06,27,08,16,28.80
2021,06,27,08,17,28.80
2021,06,27,08,18,28.80
2021,06,27,08,19,28.70
2021,06,27,08,20,28.70
2021,06,27,08,21,28.70
2021,06,27,08,22,28.70
2021,06,27,08,23,28.70
2021,06,27,08,24,28.70
2021,06,27,08,25,28.70
2021,06,27,08,26,28.70
2021,06,27,08,27,28.80
2021,06,27,08,28,28.70
2021,06,27,08,29,28.70
2021,06,27,08,30,28.70
2021,06,27,08,31,28.70
2021,06,27,08,32,28.70
2021,06,27,08,33,28.70
2021,06,27,08,34,28.70
2021,06,27,08,35,28.80
2021,06,27,08,36,28.80
2021,06,27,08,37,28.70
2021,06,27,08,38,28.80
2021,06,27,08,39,28.80
2021,06,27,08,40,28.80
2021,06,27,08,41,28.80
2021,06,27,08,42,28.80
2021,06,27,08,43,28.80
2021,06,27,08,44,28.80
2021,06,27,08,45,28.80
2021,06,27,08,46,28.80
2021,06,27,08,47,28.80
2021,06,27,08,48,28.80
2021,06,27,08,49,28.80
2021,06,27,08,50,28.80
2021,06,27,08,51,28.80
2021,06,27,08,52,28.80
2021,06,27,08,53,28.80
2021,06,27,08,54,28.80
2021,06,27,08,55,28.80
2021,06,27,08,56,28.80
2021,06,27,08,57,28.90
2021,06,27,08,58,28.90
2021,06,27,08,59,28.90
2021,06,27,09,00,28.90
2021,06,27,09,01,28.90
2021,06,27,09,02,28.90
2021,06,27,09,03,29.00
2021,06,27,09,04,29.00
2021,06,27,09,05,29.00
2021,06,27,09,06,29.10
2021,06,27,09,07,29.10
2021,06,27,09,08,29.10
2021,06,27,09,09,29.20
2021,06,27,09,10,29.20
2021,06,27,09,11,29.20
2021,06,27,09,12,29.20
2021,06,27,09,13,29.30
2021,06,27,09,14,29.30
2021,06,27,09,15,29.30
2021,06,27,09,16,29.30
2021,06,27,09,17,29.30
2021,06,27,09,18,29.30
2021,06,27,09,19,29.40
2021,06,27,09,20,29.40
2021,06,27,09,21,29.50
2021,06,27,09,22,29.50
2021,06,27,09,23,29.60
2021,06,27,09,24,29.60
2021,06,27,09,25,29.60
2021,06,27,09,26,29.60
2021,06,27,09,27,29.70
2021,06,27,09,28,29.70
2021,06,27,09,29,29.80
2021,06,27,09,30,29.80
2021,06,27,09,31,29.80
2021,06,27,09,32,29.80
2021,06,27,09,33,29.80
2021,06,27,09,34,29.80
2021,06,27,09,35,29.80
2021,06,27,09,36,29.80
2021,06,27,09,37,29.70
2021,06,27,09,38,29.70
2021,06,27,09,39,29.70
2021,06,27,09,40,29.70
2021,06,27,09,41,29.70
2021,06,27,09,42,29.70
2021,06,27,09,43,29.70
2021,06,27,09,44,29.70
2021,06,27,09,45,29.70
2021,06,27,09,46,29.70
2021,06,27,09,47,29.70
2021,06,27,09,48,29.70
2021,06,27,09,49,29.80
2021,06,27,09,50,29.80
2021,06,27,09,51,29.80
2021,06,27,09,52,29.90
2021,06,27,09,53,29.90
2021,06,27,09,54,29.90
2021,06,27,09,55,29.90
2021,06,27,09,56,29.90
2021,06,27,09,57,29.80
2021,06,27,09,58,29.80
2021,06,27,09,59,29.80
2021,06,27,10,00,29.80
2021,06,27,10,01,29.70
2021,06,27,10,02,29.70
2021,06,27,10,03,29.70
2021,06,27,10,04,29.60
2021,06,27,10,05,29.60
2021,06,27,10,06,29.60
2021,06,27,10,07,29.60
2021,06,27,10,08,29.60
2021,06,27,10,09,29.60
2021,06,27,10,10,29.70
2021,06,27,10,11,29.70
2021,06,27,10,12,29.70
2021,06,27,10,13,29.70
2021,06,27,10,14,29.70
2021,06,27,10,15,29.70
2021,06,27,10,16,29.70
2021,06,27,10,17,29.80
2021,06,27,10,18,29.80
2021,06,27,10,19,29.90
2021,06,27,10,20,29.90
2021,06,27,10,21,30.00
2021,06,27,10,22,30.00
2021,06,27,10,23,30.10
2021,06,27,10,24,30.10
2021,06,27,10,25,30.20
2021,06,27,10,26,30.20
2021,06,27,10,27,30.30
2021,06,27,10,28,30.30
2021,06,27,10,29,30.40
2021,06,27,10,30,30.40
2021,06,27,10,31,30.50
2021,06,27,10,32,30.60
2021,06,27,10,33,30.60
2021,06,27,10,34,30.60
2021,06,27,10,35,30.70
2021,06,27,10,36,30.70
2021,06,27,10,37,30.70
2021,06,27,10,38,30.70
2021,06,27,10,39,30.70
2021,06,27,10,40,30.80
2021,06,27,10,41,30.80
2021,06,27,10,42,30.80
2021,06,27,10,43,30.80
2021,06,27,10,44,30.90
2021,06,27,10,45,30.90
2021,06,27,10,46,30.90
2021,06,27,10,47,31.00
2021,06,27,10,48,31.00
2021,06,27,10,49,31.10
2021,06,27,10,50,31.10
2021,06,27,10,51,31.10
2021,06,27,10,52,31.10
2021,06,27,10,53,31.10
2021,06,27,10,54,31.10
2021,06,27,10,55,31.10
2021,06,27,10,56,31.20
2021,06,27,10,57,31.20
2021,06,27,10,58,31.20
2021,06,27,10,59,31.30
2021,06,27,11,00,31.30
2021,06,27,11,01,31.30
2021,06,27,11,02,31.40
2021,06,27,11,03,31.40
2021,06,27,11,04,31.40
2021,06,27,11,05,31.40
2021,06,27,11,06,31.50
2021,06,27,11,07,31.50
2021,06,27,11,08,31.50
2021,06,27,11,09,31.50
2021,06,27,11,10,31.60
2021,06,27,11,11,31.60
2021,06,27,11,12,31.60
2021,06,27,11,13,31.60
2021,06,27,11,14,31.60
2021,06,27,11,15,31.70
2021,06,27,11,16,31.70
2021,06,27,11,17,31.80
2021,06,27,11,18,31.90
2021,06,27,11,19,31.90
2021,06,27,11,20,31.90
2021,06,27,11,21,32.00
2021,06,27,11,22,32.00
2021,06,27,11,23,32.00
2021,06,27,11,24,32.10
2021,06,27,11,25,32.10
2021,06,27,11,26,32.10
2021,06,27,11,27,32.10
2021,06,27,11,28,32.10
2021,06,27,11,29,32.10
2021,06,27,11,30,32.20
2021,06,27,11,31,32.20
2021,06,27,11,32,32.20
2021,06,27,11,33,32.20
2021,06,27,11,34,32.20
2021,06,27,11,35,32.20
2021,06,27,11,36,32.20
2021,06,27,11,37,32.20
2021,06,27,11,38,32.20
2021,06,27,11,39,32.30
2021,06,27,11,40,32.30
2021,06,27,11,41,32.30
2021,06,27,11,42,32.30
2021,06,27,11,43,32.30
2021,06,27,11,44,32.40
2021,06,27,11,45,32.40
2021,06,27,11,46,32.50
2021,06,27,11,47,32.50
2021,06,27,11,48,32.60
2021,06,27,11,49,32.60
2021,06,27,11,50,32.70
2021,06,27,11,51,32.70
2021,06,27,11,52,32.70
2021,06,27,11,53,32.70
2021,06,27,11,54,32.70
2021,06,27,11,55,32.70
2021,06,27,11,56,32.70
2021,06,27,11,57,32.70
2021,06,27,11,58,32.70
2021,06,27,11,59,32.70
2021,06,27,12,00,32.70
2021,06,27,12,01,32.70
2021,06,27,12,02,32.60
2021,06,27,12,03,32.60
2021,06,27,12,04,32.60
2021,06,27,12,05,32.60
2021,06,27,12,06,32.70
2021,06,27,12,07,32.70
2021,06,27,12,08,32.70
2021,06,27,12,09,32.70
2021,06,27,12,10,32.80
2021,06,27,12,11,32.80
2021,06,27,12,12,32.80
2021,06,27,12,13,32.80
2021,06,27,12,14,32.90
2021,06,27,12,15,32.90
2021,06,27,12,16,32.90
2021,06,27,12,17,32.90
2021,06,27,12,18,32.90
2021,06,27,12,19,32.90
2021,06,27,12,20,32.90
2021,06,27,12,21,33.00
2021,06,27,12,22,33.00
2021,06,27,12,23,33.10
2021,06,27,12,24,33.10
2021,06,27,12,25,33.10
2021,06,27,12,26,33.10
2021,06,27,12,27,33.10
2021,06,27,12,28,33.10
2021,06,27,12,29,33.10
2021,06,27,12,30,33.10
2021,06,27,12,31,33.00
2021,06,27,12,32,33.00
2021,06,27,12,33,33.00
2021,06,27,12,34,33.00
2021,06,27,12,35,33.00
2021,06,27,12,36,33.00
2021,06,27,12,37,33.00
2021,06,27,12,38,33.00
2021,06,27,12,39,33.00
2021,06,27,12,40,33.00
2021,06,27,12,41,33.00
2021,06,27,12,42,33.10
2021,06,27,12,43,33.10
2021,06,27,12,44,33.10
2021,06,27,12,45,33.00
2021,06,27,12,46,33.00
2021,06,27,12,47,33.00
2021,06,27,12,48,33.00
2021,06,27,12,49,33.00
2021,06,27,12,50,33.00
2021,06,27,12,51,33.00
2021,06,27,12,52,33.00
2021,06,27,12,53,33.00
2021,06,27,12,54,33.00
2021,06,27,12,55,33.00
2021,06,27,12,56,33.00
2021,06,27,12,57,33.10
2021,06,27,12,58,33.10
2021,06,27,12,59,33.10
2021,06,27,13,00,33.10
2021,06,27,13,01,33.10
2021,06,27,13,02,33.10
2021,06,27,13,03,33.20
2021,06,27,13,04,33.20
2021,06,27,13,05,33.20
2021,06,27,13,06,33.20
2021,06,27,13,07,33.20
2021,06,27,13,08,33.20
2021,06,27,13,09,33.20
2021,06,27,13,10,33.20
2021,06,27,13,11,33.20
2021,06,27,13,12,33.20
2021,06,27,13,13,33.30
2021,06,27,13,14,33.30
2021,06,27,13,15,33.30
2021,06,27,13,16,33.30
2021,06,27,13,17,33.40
2021,06,27,13,18,33.40
2021,06,27,13,19,33.40
2021,06,27,13,20,33.50
2021,06,27,13,21,33.50
2021,06,27,13,22,33.60
2021,06,27,13,23,33.60
2021,06,27,13,24,33.60
2021,06,27,13,25,33.70
2021,06,27,13,26,33.70
2021,06,27,13,27,33.70
2021,06,27,13,28,33.70
2021,06,27,13,29,33.80
2021,06,27,13,30,33.80
2021,06,27,13,31,33.80
2021,06,27,13,32,33.80
2021,06,27,13,33,33.80
2021,06,27,13,34,33.80
2021,06,27,13,35,33.80
2021,06,27,13,36,33.80
2021,06,27,13,37,33.90
2021,06,27,13,38,33.90
2021,06,27,13,39,33.90
2021,06,27,13,40,34.00
2021,06,27,13,41,34.00
2021,06,27,13,42,34.00
2021,06,27,13,43,34.10
2021,06,27,13,44,34.10
2021,06,27,13,45,34.10
2021,06,27,13,46,34.20
2021,06,27,13,47,34.20
2021,06,27,13,48,34.20
2021,06,27,13,49,34.20
2021,06,27,13,50,34.20
2021,06,27,13,51,34.20
2021,06,27,13,52,34.20
2021,06,27,13,53,34.20
2021,06,27,13,54,34.30
2021,06,27,13,55,34.30
2021,06,27,13,56,34.30
2021,06,27,13,57,34.30
2021,06,27,13,58,34.20
2021,06,27,13,59,34.20
2021,06,27,14,00,34.10
2021,06,27,14,01,34.10
2021,06,27,14,02,34.00
2021,06,27,14,03,34.00
2021,06,27,14,04,34.00
2021,06,27,14,05,33.90
2021,06,27,14,06,33.90
2021,06,27,14,07,33.90
2021,06,27,14,08,33.90
2021,06,27,14,09,33.90
2021,06,27,14,10,33.90
2021,06,27,14,11,34.00
2021,06,27,14,12,34.00
2021,06,27,14,13,34.00
2021,06,27,14,14,34.00
2021,06,27,14,15,34.00
2021,06,27,14,16,34.00
2021,06,27,14,17,34.00
2021,06,27,14,18,34.00
2021,06,27,14,19,34.00
2021,06,27,14,20,34.00
2021,06,27,14,21,34.00
2021,06,27,14,22,34.00
2021,06,27,14,23,34.10
2021,06,27,14,24,34.10
2021,06,27,14,25,34.10
2021,06,27,14,26,34.10
2021,06,27,14,27,34.20
2021,06,27,14,28,34.20
2021,06,27,14,29,34.20
2021,06,27,14,30,34.20
2021,06,27,14,31,34.20
2021,06,27,14,32,34.20
2021,06,27,14,33,34.30
2021,06,27,14,34,34.30
2021,06,27,14,35,34.30
2021,06,27,14,36,34.30
2021,06,27,14,37,34.30
2021,06,27,14,38,34.30
2021,06,27,14,39,34.30
2021,06,27,14,40,34.30
2021,06,27,14,41,34.40
2021,06,27,14,42,34.40
2021,06,27,14,43,34.40
2021,06,27,14,44,34.40
2021,06,27,14,45,34.40
2021,06,27,14,46,34.50
2021,06,27,14,47,34.50
2021,06,27,14,48,34.60
2021,06,27,14,49,34.60
2021,06,27,14,50,34.70
2021,06,27,14,51,34.70
2021,06,27,14,52,34.70
2021,06,27,14,53,34.70
2021,06,27,14,54,34.70
2021,06,27,14,55,34.70
2021,06,27,14,56,34.70
2021,06,27,14,57,34.70
2021,06,27,14,58,34.60
2021,06,27,14,59,34.60
2021,06,27,15,00,34.60
2021,06,27,15,01,34.60
2021,06,27,15,02,34.50
2021,06,27,15,03,34.40
2021,06,27,15,04,34.40
2021,06,27,15,05,34.30
2021,06,27,15,06,34.30
2021,06,27,15,07,34.30
2021,06,27,15,08,34.30
2021,06,27,15,09,34.30
2021,06,27,15,10,34.30
2021,06,27,15,11,34.30
2021,06,27,15,12,34.30
2021,06,27,15,13,34.30
2021,06,27,15,14,34.20
2021,06,27,15,15,34.20
2021,06,27,15,16,34.20
2021,06,27,15,17,34.20
2021,06,27,15,18,34.30
2021,06,27,15,19,34.30
2021,06,27,15,20,34.30
2021,06,27,15,21,34.30
2021,06,27,15,22,34.40
2021,06,27,15,23,34.40
2021,06,27,15,24,34.30
2021,06,27,15,25,34.30
2021,06,27,15,26,34.30
2021,06,27,15,27,34.30
2021,06,27,15,28,34.30
2021,06,27,15,29,34.30
2021,06,27,15,30,34.30
2021,06,27,15,31,34.40
2021,06,27,15,32,34.40
2021,06,27,15,33,34.50
2021,06,27,15,34,34.50
2021,06,27,15,35,34.50
2021,06,27,15,36,34.60
2021,06,27,15,37,34.60
2021,06,27,15,38,34.60
2021,06,27,15,39,34.60
2021,06,27,15,40,34.60
2021,06,27,15,41,34.60
2021,06,27,15,42,34.70
2021,06,27,15,43,34.70
2021,06,27,15,44,34.80
2021,06,27,15,45,34.80
2021,06,27,15,46,34.80
2021,06,27,15,47,34.80
2021,06,27,15,48,34.80
2021,06,27,15,49,34.80
2021,06,27,15,50,34.90
2021,06,27,15,51,34.90
2021,06,27,15,52,34.90
2021,06,27,15,53,34.90
2021,06,27,15,54,34.90
2021,06,27,15,55,34.90
2021,06,27,15,56,35.00
2021,06,27,15,57,35.00
2021,06,27,15,58,35.10
2021,06,27,15,59,35.10
2021,06,27,16,00,35.10
2021,06,27,16,01,35.20
2021,06,27,16,02,35.20
2021,06,27,16,03,35.20
2021,06,27,16,04,35.30
2021,06,27,16,05,35.30
2021,06,27,16,06,35.40
2021,06,27,16,07,35.40
2021,06,27,16,08,35.50
2021,06,27,16,09,35.50
2021,06,27,16,10,35.60
2021,06,27,16,11,35.60
2021,06,27,16,12,35.60
2021,06,27,16,13,35.60
2021,06,27,16,14,35.70
2021,06,27,16,15,35.70
2021,06,27,16,16,35.70
2021,06,27,16,17,35.80
2021,06,27,16,18,35.80
2021,06,27,16,19,35.90
2021,06,27,16,20,35.90
2021,06,27,16,21,36.00
2021,06,27,16,22,36.00
2021,06,27,16,23,36.10
2021,06,27,16,24,36.10
2021,06,27,16,25,36.10
2021,06,27,16,26,36.20
2021,06,27,16,27,36.20
2021,06,27,16,28,36.20
2021,06,27,16,29,36.30
2021,06,27,16,30,36.30
2021,06,27,16,31,36.30
2021,06,27,16,32,36.30
2021,06,27,16,33,36.40
2021,06,27,16,34,36.40
2021,06,27,16,35,36.50
2021,06,27,16,36,36.50
2021,06,27,16,37,36.60
2021,06,27,16,38,36.60
2021,06,27,16,39,36.60
2021,06,27,16,40,36.60
2021,06,27,16,41,36.60
2021,06,27,16,42,36.60
2021,06,27,16,43,36.60
2021,06,27,16,44,36.60
2021,06,27,16,45,36.60
2021,06,27,16,46,36.60
2021,06,27,16,47,36.60
2021,06,27,16,48,36.60
2021,06,27,16,49,36.60
2021,06,27,16,50,36.60
2021,06,27,16,51,36.60
2021,06,27,16,52,36.60
2021,06,27,16,53,36.70
2021,06,27,16,54,36.70
2021,06,27,16,55,36.70
2021,06,27,16,56,36.70
2021,06,27,16,57,36.70
2021,06,27,16,58,36.80
2021,06,27,16,59,36.80
2021,06,27,17,00,36.80
2021,06,27,17,01,36.80
2021,06,27,17,02,36.80
2021,06,27,17,03,36.80
2021,06,27,17,04,36.80
2021,06,27,17,05,36.80
2021,06,27,17,06,36.80
2021,06,27,17,07,36.80
2021,06,27,17,08,36.80
2021,06,27,17,09,36.80
2021,06,27,17,10,36.70
2021,06,27,17,11,36.70
2021,06,27,17,12,36.70
2021,06,27,17,13,36.70
2021,06,27,17,14,36.70
2021,06,27,17,15,36.60
2021,06,27,17,16,36.60
2021,06,27,17,17,36.60
2021,06,27,17,18,36.60
2021,06,27,17,19,36.60